Find Starlink 11409

NORAD ID: 63061 Int'l Des: 2025-035 Owner: SPXS Country: US Constellation: starlink operational
LEOCIRCULAR

現在のビュー

3D地球を読み込み中...

About Starlink 11409

Starlink 11409 (NORAD 63061) is a starlink constellation satellite (v2 mini d2c) launched Feb 21, 2025 by SPXS of US. It operates in LEO, CIRCULAR orbit with a mass of 960.00 kg.

Starlink 11409について

説明を読み込み中...

次回通過

Passes for default location (London). Set your location on the main map for personalized predictions.

高度履歴

Loading altitude history...

軌道要素

1 63061U 25035K 26168.03651025 .00139286 00000-0 10656-2 0 9995
2 63061 43.0020 136.6810 0003888 283.4760 76.5674 15.70951000 76847
Epoch: Jun 17, 2026 • Age: 34 hours

現在のステータス

高度 360.3 km
速度 7.70 km/s
衛星直下点 42.76°N, 139.92°E
打ち上げ日 Feb 21, 2025
運用期間 1.3 years
タイプ internet

技術仕様

分類 Payload
質量 960.00 kg
乾燥質量 910.00 kg
総質量 960.00 kg
長さ 0.30 m
直径 4.10 m
スパン 29.00 m
形状 Box + pan
製造者 SPXS
バスタイプ Starlink V2MD
フェーズステータス In Orbit
所有者/国 SPXS/US

Most Searched